Year,Month,Day,Hour,Minute,Value (Times are PST for temperature in C)
2006,07,21,00,00,19.40
2006,07,21,00,01,19.40
2006,07,21,00,02,19.40
2006,07,21,00,03,19.40
2006,07,21,00,04,19.40
2006,07,21,00,05,19.40
2006,07,21,00,06,19.30
2006,07,21,00,07,19.30
2006,07,21,00,08,19.30
2006,07,21,00,09,19.30
2006,07,21,00,10,19.30
2006,07,21,00,11,19.30
2006,07,21,00,12,19.30
2006,07,21,00,13,19.30
2006,07,21,00,14,19.30
2006,07,21,00,15,19.30
2006,07,21,00,16,19.30
2006,07,21,00,17,19.30
2006,07,21,00,18,19.30
2006,07,21,00,19,19.30
2006,07,21,00,20,19.20
2006,07,21,00,21,19.10
2006,07,21,00,22,19.10
2006,07,21,00,23,19.10
2006,07,21,00,24,19.00
2006,07,21,00,25,18.90
2006,07,21,00,26,18.70
2006,07,21,00,27,18.60
2006,07,21,00,28,18.50
2006,07,21,00,29,18.40
2006,07,21,00,30,18.20
2006,07,21,00,31,18.20
2006,07,21,00,32,18.10
2006,07,21,00,33,17.90
2006,07,21,00,34,17.80
2006,07,21,00,35,17.80
2006,07,21,00,36,17.70
2006,07,21,00,37,17.70
2006,07,21,00,38,17.70
2006,07,21,00,39,17.70
2006,07,21,00,40,17.60
2006,07,21,00,41,17.50
2006,07,21,00,42,17.50
2006,07,21,00,43,17.50
2006,07,21,00,44,17.40
2006,07,21,00,45,17.40
2006,07,21,00,46,17.40
2006,07,21,00,47,17.40
2006,07,21,00,48,17.40
2006,07,21,00,49,17.40
2006,07,21,00,50,17.40
2006,07,21,00,51,17.40
2006,07,21,00,52,17.40
2006,07,21,00,53,17.40
2006,07,21,00,54,17.40
2006,07,21,00,55,17.40
2006,07,21,00,56,17.40
2006,07,21,00,57,17.40
2006,07,21,00,58,17.50
2006,07,21,00,59,17.50
2006,07,21,01,00,17.50
2006,07,21,01,01,17.50
2006,07,21,01,02,17.50
2006,07,21,01,03,17.40
2006,07,21,01,04,17.40
2006,07,21,01,05,17.50
2006,07,21,01,06,17.50
2006,07,21,01,07,17.50
2006,07,21,01,08,17.50
2006,07,21,01,09,17.50
2006,07,21,01,10,17.50
2006,07,21,01,11,17.50
2006,07,21,01,12,17.50
2006,07,21,01,13,17.50
2006,07,21,01,14,17.50
2006,07,21,01,15,17.50
2006,07,21,01,16,17.50
2006,07,21,01,17,17.50
2006,07,21,01,18,17.50
2006,07,21,01,19,17.50
2006,07,21,01,20,17.50
2006,07,21,01,21,17.50
2006,07,21,01,22,17.50
2006,07,21,01,23,17.50
2006,07,21,01,24,17.50
2006,07,21,01,25,17.50
2006,07,21,01,26,17.50
2006,07,21,01,27,17.50
2006,07,21,01,28,17.50
2006,07,21,01,29,17.50
2006,07,21,01,30,17.50
2006,07,21,01,31,17.50
2006,07,21,01,32,17.50
2006,07,21,01,33,17.50
2006,07,21,01,34,17.40
2006,07,21,01,35,17.40
2006,07,21,01,36,17.40
2006,07,21,01,37,17.40
2006,07,21,01,38,17.40
2006,07,21,01,39,17.40
2006,07,21,01,40,17.40
2006,07,21,01,41,17.30
2006,07,21,01,42,17.30
2006,07,21,01,43,17.30
2006,07,21,01,44,17.30
2006,07,21,01,45,17.30
2006,07,21,01,46,17.30
2006,07,21,01,47,17.30
2006,07,21,01,48,17.30
2006,07,21,01,49,17.30
2006,07,21,01,50,17.30
2006,07,21,01,51,17.30
2006,07,21,01,52,17.30
2006,07,21,01,53,17.30
2006,07,21,01,54,17.30
2006,07,21,01,55,17.30
2006,07,21,01,56,17.30
2006,07,21,01,57,17.30
2006,07,21,01,58,17.30
2006,07,21,01,59,17.30
2006,07,21,02,00,17.30
2006,07,21,02,01,17.30
2006,07,21,02,02,17.30
2006,07,21,02,03,17.30
2006,07,21,02,04,17.30
2006,07,21,02,05,17.30
2006,07,21,02,06,17.30
2006,07,21,02,07,17.30
2006,07,21,02,08,17.30
2006,07,21,02,09,17.30
2006,07,21,02,10,17.30
2006,07,21,02,11,17.30
2006,07,21,02,12,17.30
2006,07,21,02,13,17.30
2006,07,21,02,14,17.30
2006,07,21,02,15,17.30
2006,07,21,02,16,17.30
2006,07,21,02,17,17.30
2006,07,21,02,18,17.30
2006,07,21,02,19,17.30
2006,07,21,02,20,17.30
2006,07,21,02,21,17.30
2006,07,21,02,22,17.30
2006,07,21,02,23,17.30
2006,07,21,02,24,17.30
2006,07,21,02,25,17.30
2006,07,21,02,26,17.30
2006,07,21,02,27,17.30
2006,07,21,02,28,17.30
2006,07,21,02,29,17.30
2006,07,21,02,30,17.30
2006,07,21,02,31,17.30
2006,07,21,02,32,17.30
2006,07,21,02,33,17.30
2006,07,21,02,34,17.30
2006,07,21,02,35,17.30
2006,07,21,02,36,17.30
2006,07,21,02,37,17.30
2006,07,21,02,38,17.30
2006,07,21,02,39,17.30
2006,07,21,02,40,17.30
2006,07,21,02,41,17.30
2006,07,21,02,42,17.30
2006,07,21,02,43,17.30
2006,07,21,02,44,17.30
2006,07,21,02,45,17.30
2006,07,21,02,46,17.30
2006,07,21,02,47,17.30
2006,07,21,02,48,17.30
2006,07,21,02,49,17.30
2006,07,21,02,50,17.30
2006,07,21,02,51,17.30
2006,07,21,02,52,17.30
2006,07,21,02,53,17.30
2006,07,21,02,54,17.30
2006,07,21,02,55,17.30
2006,07,21,02,56,17.30
2006,07,21,02,57,17.30
2006,07,21,02,58,17.30
2006,07,21,02,59,17.30
2006,07,21,03,00,17.30
2006,07,21,03,01,17.30
2006,07,21,03,02,17.30
2006,07,21,03,03,17.30
2006,07,21,03,04,17.30
2006,07,21,03,05,17.30
2006,07,21,03,06,17.30
2006,07,21,03,07,17.30
2006,07,21,03,08,17.30
2006,07,21,03,09,17.30
2006,07,21,03,10,17.30
2006,07,21,03,11,17.30
2006,07,21,03,12,17.20
2006,07,21,03,13,17.20
2006,07,21,03,14,17.20
2006,07,21,03,15,17.20
2006,07,21,03,16,17.20
2006,07,21,03,17,17.20
2006,07,21,03,18,17.20
2006,07,21,03,19,17.20
2006,07,21,03,20,17.30
2006,07,21,03,21,17.30
2006,07,21,03,22,17.30
2006,07,21,03,23,17.30
2006,07,21,03,24,17.30
2006,07,21,03,25,17.30
2006,07,21,03,26,17.30
2006,07,21,03,27,17.30
2006,07,21,03,28,17.30
2006,07,21,03,29,17.20
2006,07,21,03,30,17.20
2006,07,21,03,31,17.20
2006,07,21,03,32,17.20
2006,07,21,03,33,17.20
2006,07,21,03,34,17.20
2006,07,21,03,35,17.20
2006,07,21,03,36,17.10
2006,07,21,03,37,17.10
2006,07,21,03,38,17.10
2006,07,21,03,39,17.10
2006,07,21,03,40,17.10
2006,07,21,03,41,17.10
2006,07,21,03,42,17.00
2006,07,21,03,43,17.00
2006,07,21,03,44,17.00
2006,07,21,03,45,17.00
2006,07,21,03,46,16.90
2006,07,21,03,47,16.90
2006,07,21,03,48,16.90
2006,07,21,03,49,16.90
2006,07,21,03,50,16.90
2006,07,21,03,51,16.80
2006,07,21,03,52,16.80
2006,07,21,03,53,16.80
2006,07,21,03,54,16.80
2006,07,21,03,55,16.70
2006,07,21,03,56,16.70
2006,07,21,03,57,16.70
2006,07,21,03,58,16.70
2006,07,21,03,59,16.70
2006,07,21,04,00,16.70
2006,07,21,04,01,16.70
2006,07,21,04,02,16.70
2006,07,21,04,03,16.70
2006,07,21,04,04,16.70
2006,07,21,04,05,16.70
2006,07,21,04,06,16.70
2006,07,21,04,07,16.70
2006,07,21,04,08,16.70
2006,07,21,04,09,16.70
2006,07,21,04,10,16.70
2006,07,21,04,11,16.70
2006,07,21,04,12,16.70
2006,07,21,04,13,16.70
2006,07,21,04,14,16.70
2006,07,21,04,15,16.70
2006,07,21,04,16,16.70
2006,07,21,04,17,16.80
2006,07,21,04,18,16.80
2006,07,21,04,19,16.90
2006,07,21,04,20,16.90
2006,07,21,04,21,16.90
2006,07,21,04,22,17.00
2006,07,21,04,23,17.00
2006,07,21,04,24,17.10
2006,07,21,04,25,17.10
2006,07,21,04,26,17.20
2006,07,21,04,27,17.20
2006,07,21,04,28,17.30
2006,07,21,04,29,17.30
2006,07,21,04,30,17.30
2006,07,21,04,31,17.40
2006,07,21,04,32,17.40
2006,07,21,04,33,17.50
2006,07,21,04,34,17.50
2006,07,21,04,35,17.50
2006,07,21,04,36,17.60
2006,07,21,04,37,17.60
2006,07,21,04,38,17.70
2006,07,21,04,39,17.70
2006,07,21,04,40,17.80
2006,07,21,04,41,17.80
2006,07,21,04,42,17.90
2006,07,21,04,43,17.90
2006,07,21,04,44,17.90
2006,07,21,04,45,18.00
2006,07,21,04,46,18.10
2006,07,21,04,47,18.20
2006,07,21,04,48,18.20
2006,07,21,04,49,18.20
2006,07,21,04,50,18.20
2006,07,21,04,51,18.20
2006,07,21,04,52,18.20
2006,07,21,04,53,18.20
2006,07,21,04,54,18.20
2006,07,21,04,55,18.20
2006,07,21,04,56,18.20
2006,07,21,04,57,18.20
2006,07,21,04,58,18.20
2006,07,21,04,59,18.20
2006,07,21,05,00,18.20
2006,07,21,05,01,18.20
2006,07,21,05,02,18.20
2006,07,21,05,03,18.20
2006,07,21,05,04,18.20
2006,07,21,05,05,18.20
2006,07,21,05,06,18.20
2006,07,21,05,07,18.20
2006,07,21,05,08,18.20
2006,07,21,05,09,18.20
2006,07,21,05,10,18.20
2006,07,21,05,11,18.20
2006,07,21,05,12,18.20
2006,07,21,05,13,18.20
2006,07,21,05,14,18.20
2006,07,21,05,15,18.20
2006,07,21,05,16,18.20
2006,07,21,05,17,18.20
2006,07,21,05,18,18.10
2006,07,21,05,19,18.00
2006,07,21,05,20,17.90
2006,07,21,05,21,17.90
2006,07,21,05,22,17.80
2006,07,21,05,23,17.80
2006,07,21,05,24,17.70
2006,07,21,05,25,17.70
2006,07,21,05,26,17.60
2006,07,21,05,27,17.60
2006,07,21,05,28,17.50
2006,07,21,05,29,17.50
2006,07,21,05,30,17.50
2006,07,21,05,31,17.50
2006,07,21,05,32,17.40
2006,07,21,05,33,17.40
2006,07,21,05,34,17.40
2006,07,21,05,35,17.40
2006,07,21,05,36,17.30
2006,07,21,05,37,17.30
2006,07,21,05,38,17.30
2006,07,21,05,39,17.30
2006,07,21,05,40,17.30
2006,07,21,05,41,17.30
2006,07,21,05,42,17.30
2006,07,21,05,43,17.30
2006,07,21,05,44,17.30
2006,07,21,05,45,17.30
2006,07,21,05,46,17.30
2006,07,21,05,47,17.30
2006,07,21,05,48,17.30
2006,07,21,05,49,17.30
2006,07,21,05,50,17.30
2006,07,21,05,51,17.30
2006,07,21,05,52,17.30
2006,07,21,05,53,17.30
2006,07,21,05,54,17.40
2006,07,21,05,55,17.40
2006,07,21,05,56,17.40
2006,07,21,05,57,17.40
2006,07,21,05,58,17.40
2006,07,21,05,59,17.50
2006,07,21,06,00,17.50
2006,07,21,06,01,17.50
2006,07,21,06,02,17.50
2006,07,21,06,03,17.50
2006,07,21,06,04,17.60
2006,07,21,06,05,17.60
2006,07,21,06,06,17.60
2006,07,21,06,07,17.70
2006,07,21,06,08,17.70
2006,07,21,06,09,17.70
2006,07,21,06,10,17.80
2006,07,21,06,11,17.80
2006,07,21,06,12,17.80
2006,07,21,06,13,17.80
2006,07,21,06,14,17.90
2006,07,21,06,15,17.90
2006,07,21,06,16,17.90
2006,07,21,06,17,17.90
2006,07,21,06,18,17.90
2006,07,21,06,19,17.90
2006,07,21,06,20,17.90
2006,07,21,06,21,17.90
2006,07,21,06,22,17.90
2006,07,21,06,23,17.90
2006,07,21,06,24,17.90
2006,07,21,06,25,17.90
2006,07,21,06,26,17.90
2006,07,21,06,27,17.90
2006,07,21,06,28,17.90
2006,07,21,06,29,17.90
2006,07,21,06,30,17.90
2006,07,21,06,31,17.90
2006,07,21,06,32,17.90
2006,07,21,06,33,17.90
2006,07,21,06,34,17.90
2006,07,21,06,35,17.90
2006,07,21,06,36,17.90
2006,07,21,06,37,17.90
2006,07,21,06,38,17.90
2006,07,21,06,39,17.90
2006,07,21,06,40,17.90
2006,07,21,06,41,17.90
2006,07,21,06,42,17.90
2006,07,21,06,43,17.90
2006,07,21,06,44,17.90
2006,07,21,06,45,17.90
2006,07,21,06,46,17.90
2006,07,21,06,47,17.90
2006,07,21,06,48,17.90
2006,07,21,06,49,17.90
2006,07,21,06,50,17.90
2006,07,21,06,51,17.90
2006,07,21,06,52,17.90
2006,07,21,06,53,17.90
2006,07,21,06,54,17.90
2006,07,21,06,55,17.90
2006,07,21,06,56,17.90
2006,07,21,06,57,17.90
2006,07,21,06,58,18.00
2006,07,21,06,59,18.10
2006,07,21,07,00,18.10
2006,07,21,07,01,18.10
2006,07,21,07,02,18.10
2006,07,21,07,03,18.10
2006,07,21,07,04,18.10
2006,07,21,07,05,18.10
2006,07,21,07,06,18.10
2006,07,21,07,07,18.20
2006,07,21,07,08,18.20
2006,07,21,07,09,18.20
2006,07,21,07,10,18.20
2006,07,21,07,11,18.30
2006,07,21,07,12,18.40
2006,07,21,07,13,18.50
2006,07,21,07,14,18.50
2006,07,21,07,15,18.60
2006,07,21,07,16,18.70
2006,07,21,07,17,18.80
2006,07,21,07,18,19.00
2006,07,21,07,19,19.10
2006,07,21,07,20,19.30
2006,07,21,07,21,19.50
2006,07,21,07,22,19.60
2006,07,21,07,23,19.70
2006,07,21,07,24,19.70
2006,07,21,07,25,19.80
2006,07,21,07,26,19.80
2006,07,21,07,27,19.90
2006,07,21,07,28,19.90
2006,07,21,07,29,19.90
2006,07,21,07,30,19.90
2006,07,21,07,31,20.00
2006,07,21,07,32,20.10
2006,07,21,07,33,20.10
2006,07,21,07,34,20.00
2006,07,21,07,35,19.90
2006,07,21,07,36,19.80
2006,07,21,07,37,19.70
2006,07,21,07,38,19.50
2006,07,21,07,39,19.40
2006,07,21,07,40,19.20
2006,07,21,07,41,19.20
2006,07,21,07,42,19.10
2006,07,21,07,43,19.10
2006,07,21,07,44,19.10
2006,07,21,07,45,19.10
2006,07,21,07,46,19.10
2006,07,21,07,47,19.20
2006,07,21,07,48,19.30
2006,07,21,07,49,19.40
2006,07,21,07,50,19.50
2006,07,21,07,51,19.60
2006,07,21,07,52,19.80
2006,07,21,07,53,19.90
2006,07,21,07,54,20.00
2006,07,21,07,55,20.20
2006,07,21,07,56,20.30
2006,07,21,07,57,20.40
2006,07,21,07,58,20.50
2006,07,21,07,59,20.70
2006,07,21,08,00,20.70
2006,07,21,08,01,20.80
2006,07,21,08,02,20.80
2006,07,21,08,03,20.70
2006,07,21,08,04,20.60
2006,07,21,08,05,20.50
2006,07,21,08,06,20.30
2006,07,21,08,07,20.20
2006,07,21,08,08,20.20
2006,07,21,08,09,20.20
2006,07,21,08,10,20.30
2006,07,21,08,11,20.40
2006,07,21,08,12,20.50
2006,07,21,08,13,20.60
2006,07,21,08,14,20.70
2006,07,21,08,15,20.70
2006,07,21,08,16,20.90
2006,07,21,08,17,21.00
2006,07,21,08,18,21.10
2006,07,21,08,19,21.20
2006,07,21,08,20,21.30
2006,07,21,08,21,21.50
2006,07,21,08,22,21.70
2006,07,21,08,23,21.90
2006,07,21,08,24,22.00
2006,07,21,08,25,22.20
2006,07,21,08,26,22.40
2006,07,21,08,27,22.40
2006,07,21,08,28,22.30
2006,07,21,08,29,22.20
2006,07,21,08,30,22.10
2006,07,21,08,31,21.90
2006,07,21,08,32,21.70
2006,07,21,08,33,21.60
2006,07,21,08,34,21.40
2006,07,21,08,35,21.30
2006,07,21,08,36,21.30
2006,07,21,08,37,21.30
2006,07,21,08,38,21.30
2006,07,21,08,39,21.30
2006,07,21,08,40,21.30
2006,07,21,08,41,21.40
2006,07,21,08,42,21.50
2006,07,21,08,43,21.60
2006,07,21,08,44,21.60
2006,07,21,08,45,21.60
2006,07,21,08,46,21.50
2006,07,21,08,47,21.40
2006,07,21,08,48,21.30
2006,07,21,08,49,21.30
2006,07,21,08,50,21.30
2006,07,21,08,51,21.30
2006,07,21,08,52,21.30
2006,07,21,08,53,21.40
2006,07,21,08,54,21.60
2006,07,21,08,55,21.70
2006,07,21,08,56,21.90
2006,07,21,08,57,22.00
2006,07,21,08,58,22.20
2006,07,21,08,59,22.40
2006,07,21,09,00,22.50
2006,07,21,09,01,22.70
2006,07,21,09,02,22.90
2006,07,21,09,03,23.10
2006,07,21,09,04,23.20
2006,07,21,09,05,23.30
2006,07,21,09,06,23.50
2006,07,21,09,07,23.60
2006,07,21,09,08,23.70
2006,07,21,09,09,23.90
2006,07,21,09,10,24.00
2006,07,21,09,11,24.10
2006,07,21,09,12,24.20
2006,07,21,09,13,24.40
2006,07,21,09,14,24.60
2006,07,21,09,15,24.70
2006,07,21,09,16,24.70
2006,07,21,09,17,24.60
2006,07,21,09,18,24.50
2006,07,21,09,19,24.40
2006,07,21,09,20,24.30
2006,07,21,09,21,24.20
2006,07,21,09,22,24.10
2006,07,21,09,23,24.10
2006,07,21,09,24,24.10
2006,07,21,09,25,24.20
2006,07,21,09,26,24.20
2006,07,21,09,27,24.30
2006,07,21,09,28,24.40
2006,07,21,09,29,24.40
2006,07,21,09,30,24.40
2006,07,21,09,31,24.40
2006,07,21,09,32,24.30
2006,07,21,09,33,24.10
2006,07,21,09,34,24.10
2006,07,21,09,35,24.00
2006,07,21,09,36,23.90
2006,07,21,09,37,23.90
2006,07,21,09,38,23.80
2006,07,21,09,39,23.90
2006,07,21,09,40,23.90
2006,07,21,09,41,23.90
2006,07,21,09,42,24.10
2006,07,21,09,43,24.10
2006,07,21,09,44,24.20
2006,07,21,09,45,24.10
2006,07,21,09,46,24.10
2006,07,21,09,47,24.10
2006,07,21,09,48,24.10
2006,07,21,09,49,24.10
2006,07,21,09,50,24.10
2006,07,21,09,51,24.10
2006,07,21,09,52,24.10
2006,07,21,09,53,24.10
2006,07,21,09,54,24.00
2006,07,21,09,55,24.00
2006,07,21,09,56,24.10
2006,07,21,09,57,24.10
2006,07,21,09,58,24.20
2006,07,21,09,59,24.20
2006,07,21,10,00,24.20
2006,07,21,10,01,24.20
2006,07,21,10,02,24.20
2006,07,21,10,03,24.10
2006,07,21,10,04,24.20
2006,07,21,10,05,24.20
2006,07,21,10,06,24.20
2006,07,21,10,07,24.30
2006,07,21,10,08,24.50
2006,07,21,10,09,24.60
2006,07,21,10,10,24.70
2006,07,21,10,11,24.90
2006,07,21,10,12,25.10
2006,07,21,10,13,25.20
2006,07,21,10,14,25.30
2006,07,21,10,15,25.40
2006,07,21,10,16,25.50
2006,07,21,10,17,25.60
2006,07,21,10,18,25.80
2006,07,21,10,19,25.90
2006,07,21,10,20,26.00
2006,07,21,10,21,26.00
2006,07,21,10,22,25.90
2006,07,21,10,23,25.90
2006,07,21,10,24,25.90
2006,07,21,10,25,26.00
2006,07,21,10,26,26.00
2006,07,21,10,27,26.10
2006,07,21,10,28,26.10
2006,07,21,10,29,26.10
2006,07,21,10,30,26.10
2006,07,21,10,31,26.10
2006,07,21,10,32,26.00
2006,07,21,10,33,25.90
2006,07,21,10,34,25.90
2006,07,21,10,35,25.90
2006,07,21,10,36,26.00
2006,07,21,10,37,26.10
2006,07,21,10,38,26.10
2006,07,21,10,39,26.20
2006,07,21,10,40,26.40
2006,07,21,10,41,26.50
2006,07,21,10,42,26.60
2006,07,21,10,43,26.60
2006,07,21,10,44,26.60
2006,07,21,10,45,26.60
2006,07,21,10,46,26.70
2006,07,21,10,47,26.70
2006,07,21,10,48,26.80
2006,07,21,10,49,26.80
2006,07,21,10,50,26.80
2006,07,21,10,51,26.80
2006,07,21,10,52,26.70
2006,07,21,10,53,26.60
2006,07,21,10,54,26.50
2006,07,21,10,55,26.40
2006,07,21,10,56,26.30
2006,07,21,10,57,26.30
2006,07,21,10,58,26.30
2006,07,21,10,59,26.20
2006,07,21,11,00,26.20
2006,07,21,11,01,26.20
2006,07,21,11,02,26.20
2006,07,21,11,03,26.20
2006,07,21,11,04,26.30
2006,07,21,11,05,26.30
2006,07,21,11,06,26.30
2006,07,21,11,07,26.40
2006,07,21,11,08,26.50
2006,07,21,11,09,26.60
2006,07,21,11,10,26.60
2006,07,21,11,11,26.70
2006,07,21,11,12,26.50
2006,07,21,11,13,26.40
2006,07,21,11,14,26.30
2006,07,21,11,15,26.10
2006,07,21,11,16,25.90
2006,07,21,11,17,25.80
2006,07,21,11,18,25.60
2006,07,21,11,19,25.50
2006,07,21,11,20,25.30
2006,07,21,11,21,25.30
2006,07,21,11,22,25.30
2006,07,21,11,23,25.30
2006,07,21,11,24,25.30
2006,07,21,11,25,25.30
2006,07,21,11,26,25.40
2006,07,21,11,27,25.30
2006,07,21,11,28,25.20
2006,07,21,11,29,25.20
2006,07,21,11,30,25.30
2006,07,21,11,31,25.30
2006,07,21,11,32,25.40
2006,07,21,11,33,25.50
2006,07,21,11,34,25.60
2006,07,21,11,35,25.70
2006,07,21,11,36,25.80
2006,07,21,11,37,25.80
2006,07,21,11,38,25.80
2006,07,21,11,39,25.90
2006,07,21,11,40,25.80
2006,07,21,11,41,25.70
2006,07,21,11,42,25.70
2006,07,21,11,43,25.60
2006,07,21,11,44,25.70
2006,07,21,11,45,25.80
2006,07,21,11,46,25.80
2006,07,21,11,47,25.80
2006,07,21,11,48,25.80
2006,07,21,11,49,25.70
2006,07,21,11,50,25.70
2006,07,21,11,51,25.70
2006,07,21,11,52,25.60
2006,07,21,11,53,25.70
2006,07,21,11,54,25.70
2006,07,21,11,55,25.70
2006,07,21,11,56,25.80
2006,07,21,11,57,25.90
2006,07,21,11,58,26.00
2006,07,21,11,59,26.00
2006,07,21,12,00,26.00
2006,07,21,12,01,26.10
2006,07,21,12,02,26.00
2006,07,21,12,03,26.00
2006,07,21,12,04,25.90
2006,07,21,12,05,26.10
2006,07,21,12,06,26.20
2006,07,21,12,07,26.20
2006,07,21,12,08,26.30
2006,07,21,12,09,26.40
2006,07,21,12,10,26.50
2006,07,21,12,11,26.60
2006,07,21,12,12,26.60
2006,07,21,12,13,26.60
2006,07,21,12,14,26.70
2006,07,21,12,15,26.70
2006,07,21,12,16,26.70
2006,07,21,12,17,26.70
2006,07,21,12,18,26.60
2006,07,21,12,19,26.70
2006,07,21,12,20,26.70
2006,07,21,12,21,26.70
2006,07,21,12,22,26.60
2006,07,21,12,23,26.70
2006,07,21,12,24,26.60
2006,07,21,12,25,26.60
2006,07,21,12,26,26.60
2006,07,21,12,27,26.80
2006,07,21,12,28,26.90
2006,07,21,12,29,27.00
2006,07,21,12,30,27.10
2006,07,21,12,31,27.00
2006,07,21,12,32,26.90
2006,07,21,12,33,26.90
2006,07,21,12,34,26.90
2006,07,21,12,35,26.90
2006,07,21,12,36,26.90
2006,07,21,12,37,27.00
2006,07,21,12,38,27.00
2006,07,21,12,39,27.10
2006,07,21,12,40,27.10
2006,07,21,12,41,27.20
2006,07,21,12,42,27.20
2006,07,21,12,43,27.30
2006,07,21,12,44,27.30
2006,07,21,12,45,27.20
2006,07,21,12,46,27.20
2006,07,21,12,47,27.00
2006,07,21,12,48,26.90
2006,07,21,12,49,26.80
2006,07,21,12,50,26.70
2006,07,21,12,51,26.70
2006,07,21,12,52,26.70
2006,07,21,12,53,26.80
2006,07,21,12,54,26.80
2006,07,21,12,55,26.90
2006,07,21,12,56,26.90
2006,07,21,12,57,26.90
2006,07,21,12,58,27.10
2006,07,21,12,59,27.10
2006,07,21,13,00,27.20
2006,07,21,13,01,27.30
2006,07,21,13,02,27.30
2006,07,21,13,03,27.30
2006,07,21,13,04,27.30
2006,07,21,13,05,27.30
2006,07,21,13,06,27.30
2006,07,21,13,07,27.40
2006,07,21,13,08,27.50
2006,07,21,13,09,27.60
2006,07,21,13,10,27.60
2006,07,21,13,11,27.70
2006,07,21,13,12,27.80
2006,07,21,13,13,27.90
2006,07,21,13,14,27.90
2006,07,21,13,15,27.90
2006,07,21,13,16,27.90
2006,07,21,13,17,28.00
2006,07,21,13,18,28.10
2006,07,21,13,19,28.10
2006,07,21,13,20,28.20
2006,07,21,13,21,28.30
2006,07,21,13,22,28.30
2006,07,21,13,23,28.30
2006,07,21,13,24,28.20
2006,07,21,13,25,28.10
2006,07,21,13,26,28.10
2006,07,21,13,27,28.10
2006,07,21,13,28,28.00
2006,07,21,13,29,27.80
2006,07,21,13,30,27.70
2006,07,21,13,31,27.70
2006,07,21,13,32,27.70
2006,07,21,13,33,27.70
2006,07,21,13,34,27.70
2006,07,21,13,35,27.70
2006,07,21,13,36,27.90
2006,07,21,13,37,27.90
2006,07,21,13,38,27.80
2006,07,21,13,39,27.80
2006,07,21,13,40,27.80
2006,07,21,13,41,27.90
2006,07,21,13,42,27.90
2006,07,21,13,43,28.00
2006,07,21,13,44,27.90
2006,07,21,13,45,27.90
2006,07,21,13,46,27.90
2006,07,21,13,47,27.90
2006,07,21,13,48,28.00
2006,07,21,13,49,28.00
2006,07,21,13,50,28.10
2006,07,21,13,51,28.00
2006,07,21,13,52,28.00
2006,07,21,13,53,27.90
2006,07,21,13,54,27.90
2006,07,21,13,55,28.00
2006,07,21,13,56,28.00
2006,07,21,13,57,28.10
2006,07,21,13,58,28.20
2006,07,21,13,59,28.30
2006,07,21,14,00,28.40
2006,07,21,14,01,28.40
2006,07,21,14,02,28.40
2006,07,21,14,03,28.40
2006,07,21,14,04,28.50
2006,07,21,14,05,28.60
2006,07,21,14,06,28.70
2006,07,21,14,07,28.70
2006,07,21,14,08,28.90
2006,07,21,14,09,28.90
2006,07,21,14,10,28.90
2006,07,21,14,11,28.90
2006,07,21,14,12,28.90
2006,07,21,14,13,28.70
2006,07,21,14,14,28.50
2006,07,21,14,15,28.20
2006,07,21,14,16,28.00
2006,07,21,14,17,27.80
2006,07,21,14,18,27.50
2006,07,21,14,19,27.30
2006,07,21,14,20,27.20
2006,07,21,14,21,27.00
2006,07,21,14,22,26.90
2006,07,21,14,23,26.80
2006,07,21,14,24,26.80
2006,07,21,14,25,26.80
2006,07,21,14,26,26.80
2006,07,21,14,27,26.90
2006,07,21,14,28,26.90
2006,07,21,14,29,26.90
2006,07,21,14,30,27.00
2006,07,21,14,31,27.10
2006,07,21,14,32,27.20
2006,07,21,14,33,27.10
2006,07,21,14,34,27.00
2006,07,21,14,35,26.90
2006,07,21,14,36,26.90
2006,07,21,14,37,26.90
2006,07,21,14,38,27.00
2006,07,21,14,39,27.10
2006,07,21,14,40,27.20
2006,07,21,14,41,27.30
2006,07,21,14,42,27.50
2006,07,21,14,43,27.70
2006,07,21,14,44,27.90
2006,07,21,14,45,28.00
2006,07,21,14,46,28.10
2006,07,21,14,47,28.20
2006,07,21,14,48,28.40
2006,07,21,14,49,28.50
2006,07,21,14,50,28.70
2006,07,21,14,51,28.80
2006,07,21,14,52,28.90
2006,07,21,14,53,28.80
2006,07,21,14,54,28.80
2006,07,21,14,55,28.70
2006,07,21,14,56,28.60
2006,07,21,14,57,28.50
2006,07,21,14,58,28.30
2006,07,21,14,59,28.20
2006,07,21,15,00,28.00
2006,07,21,15,01,27.90
2006,07,21,15,02,27.80
2006,07,21,15,03,27.80
2006,07,21,15,04,27.90
2006,07,21,15,05,27.90
2006,07,21,15,06,28.00
2006,07,21,15,07,28.10
2006,07,21,15,08,28.10
2006,07,21,15,09,28.20
2006,07,21,15,10,28.20
2006,07,21,15,11,28.20
2006,07,21,15,12,28.20
2006,07,21,15,13,28.20
2006,07,21,15,14,28.10
2006,07,21,15,15,27.90
2006,07,21,15,16,27.70
2006,07,21,15,17,27.50
2006,07,21,15,18,27.40
2006,07,21,15,19,27.40
2006,07,21,15,20,27.40
2006,07,21,15,21,27.50
2006,07,21,15,22,27.60
2006,07,21,15,23,27.70
2006,07,21,15,24,27.80
2006,07,21,15,25,27.80
2006,07,21,15,26,27.90
2006,07,21,15,27,28.00
2006,07,21,15,28,28.00
2006,07,21,15,29,28.00
2006,07,21,15,30,28.10
2006,07,21,15,31,28.10
2006,07,21,15,32,28.10
2006,07,21,15,33,28.20
2006,07,21,15,34,28.20
2006,07,21,15,35,28.20
2006,07,21,15,36,28.20
2006,07,21,15,37,28.20
2006,07,21,15,38,28.20
2006,07,21,15,39,28.20
2006,07,21,15,40,28.30
2006,07,21,15,41,28.40
2006,07,21,15,42,28.50
2006,07,21,15,43,28.60
2006,07,21,15,44,28.60
2006,07,21,15,45,28.60
2006,07,21,15,46,28.60
2006,07,21,15,47,28.60
2006,07,21,15,48,28.70
2006,07,21,15,49,28.70
2006,07,21,15,50,28.80
2006,07,21,15,51,28.80
2006,07,21,15,52,28.80
2006,07,21,15,53,28.80
2006,07,21,15,54,28.80
2006,07,21,15,55,28.80
2006,07,21,15,56,28.70
2006,07,21,15,57,28.60
2006,07,21,15,58,28.60
2006,07,21,15,59,28.60
2006,07,21,16,00,28.70
2006,07,21,16,01,28.80
2006,07,21,16,02,28.80
2006,07,21,16,03,28.80
2006,07,21,16,04,28.80
2006,07,21,16,05,28.90
2006,07,21,16,06,28.90
2006,07,21,16,07,29.00
2006,07,21,16,08,29.20
2006,07,21,16,09,29.30
2006,07,21,16,10,29.40
2006,07,21,16,11,29.50
2006,07,21,16,12,29.60
2006,07,21,16,13,29.80
2006,07,21,16,14,29.80
2006,07,21,16,15,29.80
2006,07,21,16,16,29.80
2006,07,21,16,17,29.80
2006,07,21,16,18,29.80
2006,07,21,16,19,29.90
2006,07,21,16,20,29.90
2006,07,21,16,21,30.00
2006,07,21,16,22,30.00
2006,07,21,16,23,29.90
2006,07,21,16,24,29.90
2006,07,21,16,25,30.00
2006,07,21,16,26,30.10
2006,07,21,16,27,30.00
2006,07,21,16,28,29.90
2006,07,21,16,29,29.90
2006,07,21,16,30,30.00
2006,07,21,16,31,30.10
2006,07,21,16,32,30.10
2006,07,21,16,33,30.20
2006,07,21,16,34,30.20
2006,07,21,16,35,30.20
2006,07,21,16,36,30.10
2006,07,21,16,37,30.00
2006,07,21,16,38,29.80
2006,07,21,16,39,29.80
2006,07,21,16,40,29.80
2006,07,21,16,41,29.80
2006,07,21,16,42,29.80
2006,07,21,16,43,29.90
2006,07,21,16,44,29.90
2006,07,21,16,45,29.90
2006,07,21,16,46,29.90
2006,07,21,16,47,29.90
2006,07,21,16,48,29.90
2006,07,21,16,49,29.90
2006,07,21,16,50,29.90
2006,07,21,16,51,29.90
2006,07,21,16,52,30.00
2006,07,21,16,53,30.10
2006,07,21,16,54,30.00
2006,07,21,16,55,29.90
2006,07,21,16,56,29.90
2006,07,21,16,57,29.90
2006,07,21,16,58,29.90
2006,07,21,16,59,29.90
2006,07,21,17,00,29.80
2006,07,21,17,01,29.70
2006,07,21,17,02,29.70
2006,07,21,17,03,29.70
2006,07,21,17,04,29.60
2006,07,21,17,05,29.60
2006,07,21,17,06,29.70
2006,07,21,17,07,29.70
2006,07,21,17,08,29.70
2006,07,21,17,09,29.70
2006,07,21,17,10,29.70
2006,07,21,17,11,29.70
2006,07,21,17,12,29.80
2006,07,21,17,13,29.80
2006,07,21,17,14,29.80
2006,07,21,17,15,29.90
2006,07,21,17,16,29.90
2006,07,21,17,17,30.00
2006,07,21,17,18,30.10
2006,07,21,17,19,30.10